Location: Ellerstadt
(49.4644°N, 8.2615°E)
Time: 07:11:42
(UTC+00:00)

SPOT 3 Rocket - Pass Details

Date: 16 June 2021
Orbit: 779 x 794 km, 98.7° (Epoch: 03 August)

Event Time Altitude Azimuth Distance (km) Brightness Sun altitude
Rises 21:32:37 0° 212° (SSW) 3,260 6.5 -12.8°
Reaches altitude 10° 21:35:48 10° 233° (SW) 2,340 5.9 -13.0°
Maximum altitude 21:39:00 16° 272° (W) 1,935 5.9 -13.2°
Drops below altitude 10° 21:42:14 10° 311° (NW) 2,358 7.1 -13.5°
Sets 21:45:29 0° 332° (NNW) 3,296 8.8 -13.7°
